[[{"header":{"parameterUnit":"m.s-1","parameterCategory":1,"la1":30.2992,"la2":30.254,"lo1":-89.0895,"lo2":-89.0443,"dy":0.0025,"dx":0.0025,"nx":19,"ny":19,"refTime":"2026-04-11T21:00:00:Z","depth":0,"parameterNumber":2,"parameterNumberName":"U-component_of_WINDS"},"data":[0,0,0,-4.1607,-4.161,-4.1758,-4.1758,-4.1942,-4.1944,0,0,0,0,0,0,0,0,0,0,0,-4.1563,-4.1564,-4.1607,-4.1611,-4.1758,-4.1758,-4.1942,-4.1944,0,0,0,0,0,0,0,0,0,0,0,-4.1562,-4.1564,-4.1565,-4.1611,-4.1757,-4.1758,-4.1941,-4.1832,0,0,0,0,0,0,0,0,0,0,-4.1689,-4.1648,-4.1563,-4.1565,-4.1612,-4.1757,-4.1758,-4.1826,-4.1838,-4.1874,0,-4.1907,0,-4.1929,-4.1956,-4.1957,0,0,0,-4.1611,-4.1638,-4.1678,-4.1566,-4.1613,-4.1757,-4.1691,-4.1833,-4.1847,-4.189,-4.191,-4.1917,-4.1932,-4.1957,-4.1958,-4.2166,-4.2167,0,0,-4.1603,-4.1589,-4.1669,-4.1687,-4.1666,-4.1687,-4.1696,-4.1841,-4.1861,-4.1911,-4.1921,-4.1935,-4.1958,-4.196,-4.2165,-4.2167,0,0,0,-4.1579,-4.1583,-4.162,-4.168,-4.1706,-4.1691,-4.1702,-4.1855,-4.1868,-4.1923,-4.1937,-4.1959,-4.1962,-4.2164,-4.2166,-4.2198,0,0,0,-4.1574,-4.1569,-4.1616,-4.1609,-4.1704,-4.1783,-4.1712,-4.1858,-4.1875,-4.1936,-4.196,-4.1963,-4.2163,-4.2165,-4.2195,-4.2215,0,0,0,-4.1553,-4.1567,-4.1588,-4.1608,-4.1671,-4.1781,-4.1803,-4.1862,-4.1883,-4.1957,-4.1964,-4.2163,-4.2165,-4.2192,-4.2211,-4.2264,0,0,0,-4.1527,-4.1615,-4.1588,-4.1692,-4.167,-4.1801,-4.1802,-4.19,-4.1967,-4.196,-4.2164,-4.2166,-4.2191,-4.2208,-4.2261,-4.2305,-4.2323,0,0,-4.163,-4.1627,-4.1689,-4.167,-4.1802,-4.178,-4.1916,-4.1991,-4.2011,-4.2113,-4.2118,-4.2196,-4.221,-4.2263,-4.243,-4.2444,0,0,0,-4.1717,-4.1761,-4.18,-4.1863,-4.1923,-4.1975,-4.203,-4.2058,-4.2145,-4.2061,-4.2232,-4.2241,-4.2272,-4.2294,-4.2305,-4.2332,-4.2176,-4.2175,-4.2175,-4.1842,-4.1863,-4.1966,-4.2005,-4.2066,-4.2122,-4.2173,-4.222,-4.2223,-4.2263,-4.2293,-4.2391,-4.2416,-4.2425,-4.2453,-4.232,-4.232,-4.232,-4.232,-4.1993,-4.2058,-4.2061,-4.2162,-4.2183,-4.2268,-4.2325,-4.2324,-4.2405,-4.2371,-4.24,-4.2359,-4.244,-4.2465,-4.2323,-4.2322,-4.2322,-4.2322,-4.2321,-4.2075,-4.211,-4.2142,-4.2235,-4.2304,-4.234,-4.2418,-4.2435,-4.2451,-4.248,-4.2512,-4.2511,-4.251,-4.2494,-4.2495,-4.2495,-4.2495,-4.2496,-4.2496,-4.2146,-4.2182,-4.2246,-4.2316,-4.2358,-4.2416,-4.2473,-4.2514,-4.2564,-4.257,-4.2571,-4.2568,-4.2445,-4.2412,-4.2501,-4.25,-4.25,-4.2499,-4.2499,-4.2288,-4.2259,-4.2357,-4.2399,-4.2482,-4.2548,-4.2569,-4.2652,-4.2689,-4.2726,-4.2719,-4.2625,-4.2623,-4.2614,-4.2586,-4.2715,-4.2715,-4.2715,-4.2715,-4.2355,-4.2357,-4.2459,-4.2525,-4.2592,-4.2621,-4.2729,-4.2774,-4.2815,-4.2839,-4.2823,-4.2789,-4.2779,-4.2782,-4.277,-4.2744,-4.291,-4.2911,-4.2911,-4.2443,-4.2451,-4.254,-4.2581,-4.2647,-4.2702,-4.2803,-4.2878,-4.2919,-4.2919,-4.2857,-4.2849,-4.2794,-4.2776,-4.2772,-4.2752,-4.2706,0,0]},{"header":{"parameterUnit":"m.s-1","parameterCategory":1,"la1":30.2992,"la2":30.254,"lo1":-89.0895,"lo2":-89.0443,"dy":0.0025,"dx":0.0025,"nx":19,"ny":19,"refTime":"2026-04-11T21:00:00:Z","depth":0,"parameterNumber":3,"parameterNumberName":"V-component_of_WINDS"},"data":[0,0,0,5.305,5.3052,5.3118,5.3118,5.3221,5.3222,0,0,0,0,0,0,0,0,0,0,0,5.3044,5.3045,5.305,5.3052,5.3118,5.3118,5.3221,5.3222,0,0,0,0,0,0,0,0,0,0,0,5.3043,5.3045,5.3046,5.3052,5.3118,5.3118,5.322,5.3163,0,0,0,0,0,0,0,0,0,0,5.3096,5.3104,5.3045,5.3046,5.3053,5.3118,5.3118,5.316,5.3167,5.32,0,5.3234,0,5.323,5.323,5.3231,0,0,0,5.3041,5.3099,5.3105,5.3047,5.3054,5.3118,5.3085,5.3164,5.3171,5.3209,5.3235,5.3239,5.3232,5.3231,5.3232,5.346,5.3461,0,0,5.3038,5.3063,5.31,5.311,5.3104,5.3083,5.3087,5.3168,5.3198,5.3236,5.3241,5.3234,5.3232,5.3233,5.3458,5.346,0,0,0,5.3034,5.3061,5.3064,5.3107,5.3117,5.3085,5.309,5.3194,5.3194,5.3242,5.3235,5.3233,5.3234,5.3457,5.3459,5.356,0,0,0,5.3032,5.3059,5.3063,5.3079,5.3116,5.3157,5.3115,5.3188,5.3196,5.3234,5.3233,5.3235,5.3455,5.3458,5.3554,5.3603,0,0,0,5.3035,5.3059,5.3073,5.308,5.3109,5.3155,5.3159,5.3189,5.3193,5.3231,5.3236,5.3454,5.3457,5.3548,5.3594,5.367,0,0,0,5.3045,5.3162,5.3075,5.3202,5.3109,5.3219,5.3158,5.3238,5.3283,5.3233,5.3455,5.3459,5.3546,5.3588,5.3664,5.3738,5.3771,0,0,5.3206,5.3182,5.3255,5.3179,5.3311,5.3206,5.3352,5.3368,5.3349,5.3423,5.3429,5.3556,5.3593,5.3669,5.3953,5.398,0,0,0,5.3314,5.3367,5.3396,5.3441,5.3458,5.3475,5.3468,5.3474,5.3536,5.3393,5.3604,5.3625,5.3669,5.3702,5.3725,5.376,5.3476,5.3476,5.3475,5.3576,5.3546,5.3664,5.3642,5.3686,5.3677,5.3709,5.3715,5.3671,5.3722,5.3743,5.392,5.3961,5.3977,5.4014,5.3781,5.3781,5.3782,5.3782,5.3807,5.3876,5.3816,5.3908,5.3875,5.3952,5.3948,5.3914,5.398,5.3901,5.3937,5.3852,5.4008,5.4038,5.3789,5.3788,5.3787,5.3786,5.3786,5.3973,5.4001,5.4008,5.407,5.412,5.4093,5.4159,5.4127,5.4096,5.4133,5.4151,5.4149,5.4141,5.4144,5.4145,5.4145,5.4146,5.4146,5.4147,5.4143,5.4147,5.4208,5.4237,5.4261,5.4288,5.4281,5.4304,5.432,5.429,5.429,5.424,5.403,5.3977,5.4156,5.4154,5.4153,5.4152,5.4151,5.4385,5.4326,5.4419,5.4444,5.4474,5.4526,5.4484,5.4533,5.4546,5.458,5.4522,5.4373,5.4345,5.4327,5.4282,5.453,5.453,5.453,5.453,5.4525,5.4508,5.4596,5.4638,5.4674,5.4647,5.4751,5.4747,5.4733,5.4739,5.4699,5.4638,5.4621,5.4603,5.4578,5.4536,5.4843,5.4843,5.4844,5.4671,5.4657,5.4753,5.474,5.4762,5.478,5.4877,5.4926,5.4897,5.4856,5.4743,5.473,5.4631,5.46,5.4554,5.4517,5.4439,0,0]}]]